This is the latest recevied weather packets stored in our database for station/object HF3P-11. If no packets are shown the sender has not sent any weather packets the latest 1 day(s).
| Time | Temp. | Humidity | Pressure | Rain* | Wind** | Luminosity | Snow |
|---|---|---|---|---|---|---|---|
| 1778022300 | 11.11° C | 91% | 999.7 hPa | 0 mm | 2.24 m/s, 37° | - | - |
| 1778022008 | 11.11° C | 91% | 999.7 hPa | 0 mm | 2.68 m/s, 36° | - | - |
| 1778021710 | 11.11° C | 91% | 999.5 hPa | 0 mm | 2.68 m/s, 41° | - | - |
| 1778021401 | 11.11° C | 91% | 999.8 hPa | 0 mm | 2.68 m/s, 34° | - | - |
| 1778021108 | 11.11° C | 90% | 999.8 hPa | 0 mm | 2.68 m/s, 28° | - | - |
| 1778020800 | 11.67° C | 90% | 999.8 hPa | 0 mm | 2.68 m/s, 31° | - | - |
| 1778020500 | 11.67° C | 90% | 999.8 hPa | 0 mm | 2.68 m/s, 37° | - | - |
| 1778020216 | 11.67° C | 89% | 999.8 hPa | 0 mm | 2.68 m/s, 37° | - | - |
| 1778019901 | 11.67° C | 89% | 999.9 hPa | 0 mm | 2.68 m/s, 36° | - | - |
| 1778019601 | 11.67° C | 88% | 999.9 hPa | 0 mm | 2.24 m/s, 38° | - | - |
| 1778019300 | 11.67° C | 88% | 999.9 hPa | 0 mm | 2.24 m/s, 37° | - | - |
| 1778019001 | 11.67° C | 88% | 999.9 hPa | 0 mm | 2.24 m/s, 39° | - | - |
| 1778018700 | 12.22° C | 87% | 1000.3 hPa | 0 mm | 2.24 m/s, 41° | - | - |
| 1778018409 | 12.22° C | 87% | 1000.2 hPa | 0 mm | 2.24 m/s, 44° | - | - |
| 1778018108 | 12.22° C | 87% | 1000.1 hPa | 0 mm | 1.79 m/s, 44° | - | - |
| 1778017811 | 25.56° C | 87% | 1000.2 hPa | 0 mm | 1.79 m/s, 43° | - | - |
| 1778017509 | 12.22° C | 86% | 1000.2 hPa | 0 mm | 2.24 m/s, 43° | - | - |
| 1778017210 | 12.22° C | 86% | 1000.2 hPa | 0 mm | 2.24 m/s, 36° | - | - |
| 1778016908 | 11.11° C | 86% | 1000.2 hPa | 0 mm | 2.24 m/s, 48° | - | - |
| 1778016608 | 12.22° C | 86% | 1000.3 hPa | 0 mm | 1.79 m/s, 47° | - | - |
| 1778016310 | 20° C | 86% | 1000.1 hPa | 0 mm | 2.24 m/s, 32° | - | - |
| 1778016009 | 20.56° C | 86% | 1000.1 hPa | 0 mm | 2.68 m/s, 33° | - | - |
| 1778015709 | 17.78° C | 86% | 1000.2 hPa | 0 mm | 2.24 m/s, 41° | - | - |
| 1778015409 | 12.22° C | 86% | 1000.3 hPa | 0 mm | 2.24 m/s, 46° | - | - |
| 1778015108 | 12.78° C | 86% | 1000.1 hPa | 0 mm | 2.24 m/s, 41° | - | - |
* Rain latest hour (hover to see other rain measurements)
** Current wind speed in m/s (hover to see current wind gust speed)